Observations for Trim Patrick St
| Time | AQI | Temp °C | Hum % | Pres Pa | CO μg/m³ | H₂S μg/m³ | NO μg/m³ | NO₂ μg/m³ | O₃ μg/m³ | SO₂ μg/m³ | PM1 μg/m³ | PM2.5 μg/m³ | PM10 μg/m³ |
|---|---|---|---|---|---|---|---|---|---|---|---|---|---|
| Saturday 1 August 2026 | |||||||||||||
| 09:12 | 1 | 19.8 | 61 | 77,628 | 0.36 | 0 | 3.77 | 4.98 | 10.48 | 0.08 | 4.57 | 11.62 | 12.79 |
| 09:11 | 1 | 19.7 | 62 | 78,090 | 0.34 | 0 | 3.91 | 7.47 | 24.46 | 1.57 | 4.57 | 9.32 | 10.25 |
| 09:10 | 1 | 19.7 | 63 | 78,678 | 0.34 | 0 | 3.82 | 6.52 | 22.01 | 0.46 | 5.43 | 9.28 | 10.21 |
| 09:09 | 1 | 19.6 | 62 | 79,412 | 0.36 | 0 | 3.92 | 5.63 | 14.81 | 0 | 5.43 | 10.81 | 11.9 |
| 09:07 | 1 | 19.3 | 63 | 81,595 | 0.38 | 0 | 3.49 | 9.25 | 15.04 | 0.28 | 3.71 | 7.8 | 8.58 |
| 09:06 | 1 | 19.2 | 62 | 83,047 | 0.37 | 0 | 3.43 | 5.79 | 11.7 | 0.21 | 5.43 | 10.78 | 11.86 |
| 09:05 | 1 | 19 | 63 | 84,840 | 0.36 | 0 | 3.37 | 7.32 | 31.33 | 0.57 | 5.43 | 11.48 | 12.63 |
| 09:04 | 1 | 18.9 | 64 | 86,996 | 0.34 | 0 | 3.28 | 6.32 | 24.85 | 0.04 | 5.43 | 9.94 | 10.93 |
| 09:03 | 1 | 18.8 | 63 | 89,704 | 0.35 | 0 | 3.42 | 5.79 | 19.26 | 0 | 4.57 | 9.26 | 10.18 |
| 09:02 | 1 | 18.6 | 65 | 92,907 | 0.35 | 0 | 3.1 | 5.48 | 18.5 | 0 | 5.43 | 9.83 | 10.82 |
| 09:01 | 1 | 18.5 | 65 | 97,065 | 0.35 | 0 | 3.11 | 7.14 | 27.16 | 0 | 6.29 | 11.33 | 12.46 |
| 09:00 | 1 | 18.3 | 66 | 101,725 | 0.34 | 0 | 2.77 | 5.42 | 14.16 | 0 | 3.71 | 9.82 | 10.8 |
| 08:59 | 1 | 18.2 | 67 | 105,028 | 0.33 | 0 | 2.5 | 11.37 | 37.47 | 0.4 | 5.43 | 10.45 | 11.49 |
| 08:57 | 1 | 17.9 | 66 | 1,784 | 0.33 | 0 | 2.73 | 6.04 | 25.12 | 0 | 6.29 | 10.49 | 11.54 |
| 08:56 | 1 | 17.8 | 66 | 7,647 | 0.33 | 0 | 2.67 | 5.91 | 23.03 | 0 | 6.29 | 11.97 | 13.17 |
| 08:55 | 1 | 17.7 | 67 | 14,215 | 0.34 | 0 | 2.78 | 7.15 | 27.9 | 0 | 4.57 | 9.73 | 10.7 |
| 08:54 | 1 | 17.7 | 67 | 20,804 | 0.32 | 0 | 2.61 | 7.17 | 25.99 | 0 | 5.43 | 10.45 | 11.49 |
| 08:53 | 1 | 17.6 | 67 | 27,680 | 0.33 | 0 | 2.51 | 6.1 | 27.76 | 0 | 4.57 | 9.72 | 10.69 |
| 08:52 | 1 | 17.5 | 67 | 32,759 | 0.32 | 0 | 2.58 | 6.42 | 24.43 | 0 | 5.43 | 11.18 | 12.29 |
| 08:51 | 1 | 17.4 | 67 | 36,438 | 0.33 | 0 | 2.55 | 6.3 | 25 | 0 | 4.57 | 10.42 | 11.46 |